Home > Weather > Chicago > Past weeks

Flag for U.S.A. Weather for the Past 2 Weeks in Chicago, Illinois, U.S.A.

Now
15 °F

Light snow. Passing clouds.


Feels Like: 0 °F
Forecast: 13 / 19 °F
Wind: 14 mph from Northwest

Location: Chicago Midway Airport

Current Time: Feb 9, 2016 at 11:37:32 PM

Latest Report: Feb 9, 2016 at 10:53 PM


Visibility: 10 mi

Pressure: 30.00 "Hg

Humidity: 64%

Dew point: 5 °F

Location of ChicagoLocation

Historic Weather in Chicago — Graph

°F

Chicago Temperature Yesterday

Maximum temperature yesterday: 33 °F (at 12:53 AM)
Minimum temperature yesterday: 23 °F (at 11:53 PM)
Average temperature yesterday: 29 °F

High & Low Weather Summary for the Past Weeks

 TemperatureHumidityPressure
High49 °F (Jan 31, 12:53 PM)100% (Feb 2, 11:53 PM)30.40 "Hg (Feb 2, 11:53 PM)
Low15 °F (Feb 9, 9:53 PM)37% (Jan 29, 2:53 PM)29.46 "Hg (Feb 2, 11:01 PM)
Average34 °F70%29.93 "Hg
* Reported Jan 25 9:53 PM — Feb 9 9:53 PM, Chicago, Weather by CustomWeather, © 2016

Note: Actual official high and low records may vary slightly from our data, if they occured in-between our weather recording intervals... More about our weather records

Advertising

Chicago Weather History for the Previous 24 Hours

 ConditionsComfort  
Time TempWeatherWind HumidityBarometerVisibility
9:53 PM
Tue, Feb 9
15 °FLight snow. Passing clouds.16 mph67%30.00 "Hg9 mi
8:53 PM16 °FLight snow. Passing clouds.13 mph67%30.00 "Hg9 mi
7:53 PM16 °FLight snow. Overcast.14 mph67%30.00 "Hg8 mi
6:53 PM18 °FLight snow. Mostly cloudy.13 mph59%29.99 "Hg9 mi
5:53 PM18 °FLight snow. Mostly cloudy.12 mph59%29.98 "Hg9 mi
4:53 PM18 °FLight snow. More clouds than sun.14 mph59%29.96 "Hg9 mi
3:53 PM18 °FLight snow. Partly sunny.13 mph62%29.94 "Hg5 mi
2:53 PM19 °FLight snow. Overcast.13 mph57%29.91 "Hg8 mi
1:53 PM19 °FLight snow. Partly sunny.16 mph59%29.89 "Hg9 mi
12:53 PM19 °FLight snow. Mostly cloudy.14 mph62%29.88 "Hg9 mi
11:53 AM19 °FLight snow. Partly sunny.12 mph65%29.88 "Hg10 mi
10:53 AM18 °FLight snow. Cloudy.16 mph65%29.89 "Hg6 mi
9:53 AM17 °FLight snow. Mostly cloudy.16 mph68%29.88 "Hg10 mi
8:53 AM17 °FLight snow. Ice fog.18 mph70%29.86 "Hg3 mi
8:04 AM18 °FLight snow. Ice fog.12 mph74%29.81 "Hg1 mi
6:53 AM18 °FLight snow. Mostly cloudy.15 mph71%29.83 "Hg8 mi
5:53 AM18 °FLight snow. Ice fog.14 mph74%29.81 "Hg3 mi
4:53 AM19 °FLight snow. Ice fog.10 mph74%29.80 "Hg2 mi
3:53 AM19 °FLight snow. Ice fog.12 mph74%29.78 "Hg2 mi
2:53 AM20 °FLight snow. Ice fog.8 mph78%29.77 "Hg3 mi
1:53 AM21 °FLight snow. Ice fog.12 mph74%29.77 "Hg2 mi
12:53 AM22 °FLight snow. Ice fog.10 mph78%29.77 "Hg1 mi
11:53 PM
Mon, Feb 8
23 °FLight snow. Mostly cloudy.12 mph74%29.78 "Hg1 mi
Weather by CustomWeather, © 2016

See weather overviewHow to use our weather pages